GW0353 Weather Reports


Display with metric or nautical units.
time (UTC)temp
F
wind
direction
speed
MPH
gust
MPH
rain 1hr
in
rain 24hr
in
rain mn
in
humidity
%
barometer
mb
20260831035557 61 176 0.0 2.0 0.00 0.00 0.00 40 1023.1
20260831035059 61 169 0.0 1.0 0.00 0.00 0.00 39 1023.1
20260831034613 63 0 0.0 5.0 0.00 0.00 0.00 38 1023.1
20260831034057 63 0 0.0 5.0 0.00 0.00 0.00 37 1022.9
20260831033601 64 0 2.0 5.0 0.00 0.00 0.00 36 1022.9
20260831033106 64 0 2.0 5.0 0.00 0.00 0.00 36 1022.7
20260831032558 65 53 3.0 9.0 0.00 0.00 0.00 36 1022.6
20260831032058 65 316 3.0 9.0 0.00 0.00 0.00 36 1022.5
20260831031607 65 56 2.0 7.0 0.00 0.00 0.00 37 1022.5
20260831031100 65 117 2.0 7.0 0.00 0.00 0.00 37 1022.4
20260831030600 65 68 4.0 8.0 0.00 0.00 0.00 37 1022.3
20260831030107 65 157 4.0 8.0 0.00 0.00 0.00 37 1022.2
20260831025558 65 160 2.0 6.0 0.00 0.00 0.00 37 1022.3
20260831025057 65 105 1.0 7.0 0.00 0.00 0.00 38 1021.9
20260831024605 66 20 3.0 7.0 0.00 0.00 0.00 37 1022.0
20260831024102 66 58 0.0 8.0 0.00 0.00 0.00 40 1021.8
20260831023557 65 0 3.0 8.0 0.00 0.00 0.00 39 1021.7
20260831023106 66 118 0.0 2.0 0.00 0.00 0.00 40 1021.7
20260831022558 67 48 0.0 2.0 0.00 0.00 0.00 38 1021.6
20260831022058 67 0 0.0 1.0 0.00 0.00 0.00 36 1021.6
20260831021609 67 0 0.0 0.0 0.00 0.00 0.00 34 1021.5
20260831021058 67 0 0.0 1.0 0.00 0.00 0.00 34 1021.5
20260831020557 68 0 0.0 2.0 0.00 0.00 0.00 35 1021.5
20260831020108 69 158 0.0 2.0 0.00 0.00 0.00 35 1021.4
20260831015557 70 0 0.0 1.0 0.00 0.00 0.00 33 1021.4
20260831015057 71 0 0.0 1.0 0.00 0.00 0.00 32 1021.5
20260831014623 71 0 0.0 1.0 0.00 0.00 0.00 30 1021.5
20260831014058 73 0 0.0 1.0 0.00 0.00 0.00 29 1021.5
20260831013558 73 0 0.0 3.0 0.00 0.00 0.00 23 1021.5
20260831013109 73 0 0.0 5.0 0.00 0.00 0.00 23 1021.5
20260831012558 73 0 2.0 5.0 0.00 0.00 0.00 23 1021.5
20260831012058 73 159 1.0 5.0 0.00 0.00 0.00 23 1021.6
20260831011609 74 243 1.0 5.0 0.00 0.00 0.00 23 1021.5
20260831011057 74 144 1.0 5.0 0.00 0.00 0.00 23 1021.7
20260831010601 74 163 3.0 6.0 0.00 0.00 0.00 23 1021.7
20260831010109 74 0 3.0 7.0 0.00 0.00 0.00 23 1021.6
20260831005557 73 152 2.0 7.0 0.00 0.00 0.00 23 1021.7
20260831005058 73 161 3.0 7.0 0.00 0.00 0.00 23 1021.7
20260831004627 73 184 3.0 7.0 0.00 0.00 0.00 24 1021.7
20260831004056 73 162 4.0 6.0 0.00 0.00 0.00 24 1021.7
20260831003600 73 148 3.0 5.0 0.00 0.00 0.00 24 1021.8
20260831003112 73 148 3.0 5.0 0.00 0.00 0.00 24 1021.7
20260831002557 73 120 1.0 6.0 0.00 0.00 0.00 24 1021.6
20260831002100 73 135 2.0 7.0 0.00 0.00 0.00 24 1021.8
20260831001633 73 124 3.0 7.0 0.00 0.00 0.00 24 1021.8
20260831001058 73 117 3.0 7.0 0.00 0.00 0.00 24 1021.7
20260831000558 73 155 4.0 10.0 0.00 0.00 0.00 23 1021.8
20260831000115 73 89 5.0 10.0 0.00 0.00 0.00 23 1021.7
20260830235559 73 138 6.0 10.0 0.00 0.00 0.00 23 1021.8
20260830235100 74 164 3.0 7.0 0.00 0.00 0.00 23 1021.9
20260830234613 74 133 2.0 7.0 0.00 0.00 0.00 23 1021.7
20260830234058 74 174 2.0 7.0 0.00 0.00 0.00 22 1021.8
20260830233558 74 143 4.0 7.0 0.00 0.00 0.00 22 1021.8
20260830233132 74 120 3.0 7.0 0.00 0.00 0.00 23 1021.8
20260830232558 74 155 1.0 7.0 0.00 0.00 0.00 21 1022.0
20260830232058 74 87 4.0 7.0 0.00 0.00 0.00 21 1021.9
20260830231614 74 159 2.0 8.0 0.00 0.00 0.00 22 1022.0
20260830231101 75 125 3.0 9.0 0.00 0.00 0.00 21 1021.9
20260830230559 75 139 1.0 13.0 0.00 0.00 0.00 22 1022.0
20260830230133 76 136 5.0 13.0 0.00 0.00 0.00 21 1022.0
20260830225557 76 130 3.0 9.0 0.00 0.00 0.00 22 1022.2
20260830225058 76 282 1.0 11.0 0.00 0.00 0.00 20 1022.2
20260830224615 75 63 3.0 11.0 0.00 0.00 0.00 21 1022.2
20260830224058 76 54 3.0 11.0 0.00 0.00 0.00 21 1022.3
20260830223558 75 101 0.0 10.0 0.00 0.00 0.00 22 1022.4
20260830223112 75 68 6.0 10.0 0.00 0.00 0.00 19 1022.4
20260830222558 75 61 4.0 10.0 0.00 0.00 0.00 21 1022.4
20260830222059 75 41 0.0 13.0 0.00 0.00 0.00 21 1022.6
20260830221607 75 42 4.0 13.0 0.00 0.00 0.00 20 1022.5
20260830221058 75 85 5.0 13.0 0.00 0.00 0.00 21 1022.6
20260830220558 75 107 7.0 13.0 0.00 0.00 0.00 20 1022.6
20260830220107 75 162 4.0 10.0 0.00 0.00 0.00 20 1022.6
20260830215557 76 149 4.0 14.0 0.00 0.00 0.00 21 1022.7
20260830215057 76 113 2.0 14.0 0.00 0.00 0.00 21 1022.8
20260830214607 76 77 5.0 12.0 0.00 0.00 0.00 21 1022.8
20260830214059 76 63 5.0 13.0 0.00 0.00 0.00 21 1022.7
20260830213558 76 174 6.0 15.0 0.00 0.00 0.00 20 1022.8
20260830213103 75 203 6.0 15.0 0.00 0.00 0.00 20 1022.9
20260830212558 75 25 7.0 15.0 0.00 0.00 0.00 21 1022.9
20260830212058 75 55 6.0 12.0 0.00 0.00 0.00 22 1022.9
20260830211605 74 126 5.0 14.0 0.00 0.00 0.00 21 1022.9
20260830211057 74 94 6.0 14.0 0.00 0.00 0.00 21 1023.0
20260830210558 74 84 5.0 12.0 0.00 0.00 0.00 22 1022.9
20260830210109 74 134 5.0 12.0 0.00 0.00 0.00 22 1023.1
20260830205557 74 87 5.0 17.0 0.00 0.00 0.00 21 1023.1
20260830205058 74 120 6.0 17.0 0.00 0.00 0.00 21 1023.1
20260830204606 74 139 8.0 17.0 0.00 0.00 0.00 22 1023.1
20260830204058 74 70 4.0 12.0 0.00 0.00 0.00 22 1023.1
20260830203558 74 117 5.0 12.0 0.00 0.00 0.00 22 1023.3
20260830203110 74 139 6.0 11.0 0.00 0.00 0.00 23 1023.3
20260830202601 74 186 3.0 14.0 0.00 0.00 0.00 23 1023.2
20260830202058 74 108 4.0 14.0 0.00 0.00 0.00 23 1023.3
20260830201609 74 53 5.0 11.0 0.00 0.00 0.00 22 1023.5
20260830201057 74 77 4.0 16.0 0.00 0.00 0.00 23 1023.6
20260830200558 73 136 4.0 16.0 0.00 0.00 0.00 24 1023.5
20260830200106 73 129 5.0 15.0 0.00 0.00 0.00 22 1023.5
20260830195557 73 68 6.0 16.0 0.00 0.00 0.00 23 1023.7
20260830195058 73 189 6.0 16.0 0.00 0.00 0.00 24 1023.6
20260830194616 73 110 5.0 14.0 0.00 0.00 0.00 24 1023.8
20260830194058 73 169 6.0 17.0 0.00 0.00 0.00 23 1023.7
20260830193601 73 172 7.0 17.0 0.00 0.00 0.00 22 1023.7
20260830193109 74 167 4.0 14.0 0.00 0.00 0.00 22 1023.7
20260830192559 73 113 3.0 12.0 0.00 0.00 0.00 24 1023.7
20260830192058 73 77 5.0 12.0 0.00 0.00 0.00 24 1023.8
20260830191610 72 118 3.0 12.0 0.00 0.00 0.00 24 1023.8
20260830191057 72 110 5.0 17.0 0.00 0.00 0.00 22 1023.9
20260830190559 73 108 6.0 17.0 0.00 0.00 0.00 24 1023.9
20260830190106 73 75 5.0 17.0 0.00 0.00 0.00 22 1023.9
20260830185602 73 81 5.0 14.0 0.00 0.00 0.00 23 1024.0
20260830185057 73 125 4.0 17.0 0.00 0.00 0.00 23 1024.0
20260830184602 73 58 3.0 17.0 0.00 0.00 0.00 22 1024.1
20260830184057 74 52 5.0 17.0 0.00 0.00 0.00 22 1024.0
20260830183600 74 273 1.0 7.0 0.00 0.00 0.00 23 1024.1
20260830183110 75 6 1.0 6.0 0.00 0.00 0.00 24 1024.1
20260830182600 75 0 1.0 6.0 0.00 0.00 0.00 23 1024.2
20260830182058 74 274 2.0 6.0 0.00 0.00 0.00 23 1024.2
20260830181606 73 266 1.0 7.0 0.00 0.00 0.00 24 1024.4
20260830181059 73 36 1.0 7.0 0.00 0.00 0.00 23 1024.4
20260830180558 72 288 3.0 7.0 0.00 0.00 0.00 23 1024.4
20260830180109 72 217 1.0 4.0 0.00 0.00 0.00 22 1024.6
20260830175558 71 295 1.0 5.0 0.00 0.00 0.00 23 1024.5
20260830175058 72 56 1.0 5.0 0.00 0.00 0.00 23 1024.4
20260830174617 72 29 0.0 4.0 0.00 0.00 0.00 24 1024.6
20260830174101 70 0 1.0 4.0 0.00 0.00 0.00 23 1024.6
20260830173559 69 39 2.0 4.0 0.00 0.00 0.00 24 1024.7
20260830173107 68 56 0.0 4.0 0.00 0.00 0.00 23 1024.6
20260830172558 68 61 2.0 3.0 0.00 0.00 0.00 25 1024.6
20260830172058 68 88 0.0 4.0 0.00 0.00 0.00 25 1024.6
20260830171609 67 316 1.0 4.0 0.00 0.00 0.00 26 1024.7
20260830171102 67 44 0.0 3.0 0.00 0.00 0.00 29 1024.7
20260830170557 66 306 1.0 4.0 0.00 0.00 0.00 30 1024.6
20260830170108 65 0 2.0 4.0 0.00 0.00 0.00 30 1024.6
20260830165600 65 77 1.0 4.0 0.00 0.00 0.00 31 1024.5
20260830165058 65 52 0.0 3.0 0.00 0.00 0.00 36 1024.6
20260830164605 64 32 1.0 3.0 0.00 0.00 0.00 34 1024.6
20260830164058 63 0 0.0 2.0 0.00 0.00 0.00 39 1024.6
20260830163558 63 130 0.0 3.0 0.00 0.00 0.00 42 1024.6
20260830163108 62 113 0.0 3.0 0.00 0.00 0.00 45 1024.6
20260830162600 61 113 2.0 3.0 0.00 0.00 0.00 43 1024.7
20260830162100 62 95 1.0 2.0 0.00 0.00 0.00 43 1024.6
20260830161607 62 27 0.0 3.0 0.00 0.00 0.00 45 1024.6
20260830161102 60 319 0.0 4.0 0.00 0.00 0.00 49 1024.6
20260830160601 60 58 1.0 4.0 0.00 0.00 0.00 56 1024.6
20260830160115 59 46 1.0 3.0 0.00 0.00 0.00 55 1024.5
20260830155558 58 70 1.0 2.0 0.00 0.00 0.00 56 1024.5
20260830155058 57 108 0.0 2.0 0.00 0.00 0.00 57 1024.5
20260830154606 56 82 2.0 2.0 0.00 0.00 0.00 60 1024.5
20260830154102 55 94 0.0 3.0 0.00 0.00 0.00 67 1024.6
20260830153557 55 0 1.0 3.0 0.00 0.00 0.00 70 1024.7
20260830153108 54 61 2.0 3.0 0.00 0.00 0.00 71 1024.8
20260830152557 54 49 0.0 2.0 0.00 0.00 0.00 72 1024.9
20260830152058 53 0 0.0 1.0 0.00 0.00 0.00 73 1024.9
20260830151605 53 73 0.0 1.0 0.00 0.00 0.00 75 1024.9
20260830151058 52 58 0.0 1.0 0.00 0.00 0.00 76 1025.0
20260830150602 51 0 0.0 1.0 0.00 0.00 0.00 75 1024.9
20260830150121 51 0 0.0 1.0 0.00 0.00 0.00 76 1024.9
20260830145559 50 0 0.0 1.0 0.00 0.00 0.00 76 1025.0
20260830145058 50 6 0.0 0.0 0.00 0.00 0.00 77 1025.1
20260830144609 49 0 0.0 1.0 0.00 0.00 0.00 78 1024.9
20260830144058 48 0 0.0 1.0 0.00 0.00 0.00 78 1024.8
20260830143558 47 0 0.0 2.0 0.00 0.00 0.00 78 1024.7
20260830143107 45 0 0.0 3.0 0.00 0.00 0.00 83 1024.6
20260830142558 42 0 1.0 3.0 0.00 0.00 0.00 80 1024.7
20260830142058 41 193 1.0 3.0 0.00 0.00 0.00 83 1024.7
20260830141606 40 171 0.0 0.0 0.00 0.00 0.00 83 1024.7
20260830141058 40 0 0.0 1.0 0.00 0.00 0.00 78 1024.6
20260830140558 40 0 0.0 2.0 0.00 0.00 0.00 78 1024.4
20260830140105 40 181 0.0 2.0 0.00 0.00 0.00 82 1024.4
20260830135558 39 172 0.0 1.0 0.00 0.00 0.00 78 1024.5
20260830135102 40 0 0.0 0.0 0.00 0.00 0.00 76 1024.3
20260830134608 40 0 0.0 0.0 0.00 0.00 0.00 76 1024.3
20260830134057 40 0 0.0 1.0 0.00 0.00 0.00 78 1024.1
20260830133557 40 0 0.0 1.0 0.00 0.00 0.00 78 1024.2
20260830133108 40 194 0.0 1.0 0.00 0.00 0.00 77 1024.0
20260830132557 40 0 0.0 1.0 0.00 0.00 0.00 77 1023.8
20260830132058 40 0 0.0 3.0 0.00 0.00 0.00 78 1023.7
20260830131626 40 0 0.0 3.0 0.00 0.00 0.00 77 1023.7
20260830131058 40 179 2.0 3.0 0.00 0.00 0.00 77 1023.6
20260830130559 40 0 0.0 0.0 0.00 0.00 0.00 80 1023.7
20260830130109 40 0 0.0 0.0 0.00 0.00 0.00 80 1023.6
20260830125600 41 0 0.0 1.0 0.00 0.00 0.00 81 1023.6
20260830125058 41 0 0.0 1.0 0.00 0.00 0.00 79 1023.6
20260830124605 41 0 0.0 1.0 0.00 0.00 0.00 78 1023.6
20260830124058 42 0 0.0 1.0 0.00 0.00 0.00 78 1023.5
20260830123600 42 0 0.0 4.0 0.00 0.00 0.00 79 1023.5
20260830123109 41 0 0.0 4.0 0.00 0.00 0.00 79 1023.4
20260830122558 42 174 1.0 3.0 0.00 0.00 0.00 76 1023.5
20260830122058 42 0 0.0 2.0 0.00 0.00 0.00 78 1023.6
20260830121607 43 0 0.0 2.0 0.00 0.00 0.00 78 1023.6
20260830121058 42 183 0.0 2.0 0.00 0.00 0.00 81 1023.7
20260830120558 42 188 1.0 2.0 0.00 0.00 0.00 77 1023.7
20260830120107 42 0 0.0 1.0 0.00 0.00 0.00 77 1023.7
20260830115558 42 183 0.0 1.0 0.00 0.00 0.00 75 1023.7
20260830115058 43 0 0.0 1.0 0.00 0.00 0.00 78 1023.7
20260830114614 43 0 0.0 1.0 0.00 0.00 0.00 81 1023.7
20260830114057 43 0 0.0 1.0 0.00 0.00 0.00 77 1023.6
20260830113557 43 0 0.0 1.0 0.00 0.00 0.00 71 1023.7
20260830113108 43 0 0.0 1.0 0.00 0.00 0.00 71 1023.7
20260830112557 43 0 0.0 1.0 0.00 0.00 0.00 74 1023.8
20260830112058 43 0 0.0 1.0 0.00 0.00 0.00 71 1024.0
20260830111606 43 0 0.0 0.0 0.00 0.00 0.00 70 1023.9
20260830111059 43 0 0.0 1.0 0.00 0.00 0.00 72 1024.0
20260830110600 44 0 0.0 2.0 0.00 0.00 0.00 72 1023.9
20260830110104 43 0 0.0 2.0 0.00 0.00 0.00 72 1023.9
20260830105558 43 210 0.0 1.0 0.00 0.00 0.00 73 1024.0
20260830105058 44 0 0.0 1.0 0.00 0.00 0.00 72 1024.0
20260830104606 44 162 0.0 1.0 0.00 0.00 0.00 71 1023.8
20260830104058 45 0 0.0 1.0 0.00 0.00 0.00 74 1023.8
20260830103558 45 0 0.0 2.0 0.00 0.00 0.00 74 1023.8
20260830103108 44 203 0.0 2.0 0.00 0.00 0.00 72 1023.9
20260830102557 44 190 1.0 2.0 0.00 0.00 0.00 72 1023.8
20260830102058 44 0 0.0 2.0 0.00 0.00 0.00 72 1023.8
20260830101607 44 0 0.0 0.0 0.00 0.00 0.00 75 1023.7
20260830101058 45 0 0.0 0.0 0.00 0.00 0.00 73 1023.7
20260830100558 45 0 0.0 1.0 0.00 0.00 0.00 76 1023.7
20260830100105 45 0 0.0 1.0 0.00 0.00 0.00 74 1023.6
20260830095600 45 210 0.0 0.0 0.00 0.00 0.00 75 1023.8
20260830095058 45 0 0.0 0.0 0.00 0.00 0.00 73 1023.8
20260830094607 45 0 0.0 2.0 0.00 0.00 0.00 73 1023.7
20260830094057 45 0 0.0 3.0 0.00 0.00 0.00 73 1023.7
20260830093557 46 0 0.0 3.0 0.00 0.00 0.00 73 1023.7
20260830093107 46 191 0.0 1.0 0.00 0.00 0.00 72 1023.8
20260830092558 47 0 0.0 1.0 0.00 0.00 0.00 71 1023.8
20260830092058 47 0 0.0 2.0 0.00 0.00 0.00 72 1023.9
20260830091607 46 0 1.0 2.0 0.00 0.00 0.00 73 1024.0
20260830091058 46 175 0.0 2.0 0.00 0.00 0.00 73 1024.0
20260830090558 46 0 0.0 1.0 0.00 0.00 0.00 74 1024.0
20260830090113 46 189 0.0 1.0 0.00 0.00 0.00 72 1024.0
20260830085558 46 0 0.0 1.0 0.00 0.00 0.00 71 1023.9
20260830085057 47 0 0.0 1.0 0.00 0.00 0.00 72 1023.8
20260830084604 46 257 0.0 3.0 0.00 0.00 0.00 73 1023.9
20260830084104 46 0 0.0 3.0 0.00 0.00 0.00 73 1024.1
20260830083558 46 167 0.0 2.0 0.00 0.00 0.00 70 1024.0
20260830083109 47 0 0.0 2.0 0.00 0.00 0.00 72 1024.1
20260830082559 46 0 0.0 3.0 0.00 0.00 0.00 70 1024.1
20260830082058 46 0 0.0 3.0 0.00 0.00 0.00 71 1024.2
20260830081606 46 193 0.0 1.0 0.00 0.00 0.00 70 1024.1
20260830081057 47 0 0.0 0.0 0.00 0.00 0.00 69 1024.0
20260830080555 47 0 0.0 0.0 0.00 0.00 0.00 70 1024.1
20260830080105 47 0 0.0 2.0 0.00 0.00 0.00 70 1024.1
20260830075556 48 0 0.0 2.0 0.00 0.00 0.00 70 1024.2
20260830075059 48 0 0.0 2.0 0.00 0.00 0.00 70 1024.3
20260830074606 48 167 0.0 1.0 0.00 0.00 0.00 70 1024.4
20260830074058 48 0 0.0 3.0 0.00 0.00 0.00 70 1024.5
20260830073558 48 0 1.0 3.0 0.00 0.00 0.00 68 1024.5
20260830073107 50 163 0.0 2.0 0.00 0.00 0.00 69 1024.7
20260830072558 50 0 0.0 1.0 0.00 0.00 0.00 72 1024.7
20260830072058 50 0 0.0 2.0 0.00 0.00 0.00 71 1024.6
20260830071605 50 0 0.0 2.0 0.00 0.00 0.00 70 1024.5
20260830071057 50 0 0.0 2.0 0.00 0.00 0.00 69 1024.3
20260830070558 50 0 0.0 1.0 0.00 0.00 0.00 68 1024.4
20260830070114 51 0 0.0 2.0 0.00 0.00 0.00 68 1024.4
20260830065558 51 182 1.0 2.0 0.00 0.00 0.00 68 1024.3
20260830065058 51 0 0.0 0.0 0.00 0.00 0.00 67 1024.3
20260830064612 52 0 0.0 1.0 0.00 0.00 0.00 68 1024.3
20260830064058 52 0 0.0 1.0 0.00 0.00 0.00 66 1024.4
20260830063558 53 0 0.0 1.0 0.00 0.00 0.00 66 1024.5
20260830063114 53 0 0.0 1.0 0.00 0.00 0.00 65 1024.6
20260830062557 54 143 0.0 3.0 0.00 0.00 0.00 65 1024.5
20260830062058 54 0 0.0 4.0 0.00 0.00 0.00 64 1024.5
20260830061612 54 67 1.0 4.0 0.00 0.00 0.00 63 1024.5
20260830061100 54 0 0.0 1.0 0.00 0.00 0.00 62 1024.6
20260830060558 55 0 0.0 2.0 0.00 0.00 0.00 62 1024.6
20260830060108 55 0 0.0 2.0 0.00 0.00 0.00 61 1024.7
20260830055554 56 124 0.0 1.0 0.00 0.00 0.00 60 1024.7
20260830055058 56 0 0.0 2.0 0.00 0.00 0.00 59 1024.7
20260830054605 57 167 0.0 2.0 0.00 0.00 0.00 58 1024.7
20260830054057 57 0 0.0 2.0 0.00 0.00 0.00 60 1024.8
20260830053557 57 0 0.0 3.0 0.00 0.00 0.00 58 1024.8
20260830053106 57 0 0.0 6.0 0.00 0.00 0.00 58 1024.9
20260830052557 57 0 0.0 6.0 0.00 0.00 0.00 58 1024.8
20260830052055 56 134 3.0 5.0 0.00 0.00 0.00 59 1024.9
20260830051615 56 224 1.0 3.0 0.00 0.00 0.00 58 1024.9
20260830051057 57 262 1.0 3.0 0.00 0.00 0.00 57 1024.9
20260830050558 57 119 0.0 2.0 0.00 0.00 0.00 57 1024.9
20260830050107 57 150 0.0 2.0 0.00 0.00 0.00 57 1024.8
20260830045557 58 136 0.0 2.0 0.00 0.00 0.00 56 1024.9
20260830045058 58 0 0.0 3.0 0.00 0.00 0.00 55 1024.8
20260830044609 59 154 0.0 6.0 0.00 0.00 0.00 54 1024.7
20260830044058 59 0 2.0 6.0 0.00 0.00 0.00 54 1024.8
20260830043558 59 82 3.0 9.0 0.00 0.00 0.00 54 1024.6
20260830043103 60 134 6.0 9.0 0.00 0.00 0.00 53 1024.6
20260830042558 60 89 0.0 11.0 0.00 0.00 0.00 53 1024.6
20260830042058 60 0 1.0 11.0 0.00 0.00 0.00 54 1024.5
20260830041058 60 50 8.0 12.0 0.00 0.00 0.00 55 1024.3
20260830040600 59 52 5.0 11.0 0.00 0.00 0.00 53 1024.3
20260830040111 60 135 1.0 6.0 0.00 0.00 0.00 48 1024.2